Location: ??
(31.9467°N, 34.8903°E)
Time: 17:58:33
(UTC+00:00)

Cosmos 2058 - Pass Details

Date: 29 October 2020
Orbit: 562 x 583 km, 82.5° (Epoch: 29 November)

Event Time Altitude Azimuth Distance (km) Brightness Sun altitude
Rises 15:57:10 0° 1° (N) 2,756 6.3 -14.1°
Reaches altitude 10° 15:59:25 10° 8° (N) 1,857 5.4 -14.6°
Maximum altitude 16:03:21 45° 81° (E) 769 3.1 -15.4°
Drops below altitude 10° 16:07:17 10° 155° (SSE) 1,853 5.3 -16.3°
Sets 16:09:31 0° 162° (SSE) 2,748 6.3 -16.7°
